When you browse on this site, cookies collect data to enhance your experience and personalize the content and advertising you see.
Visit our Privacy Policy to learn more. By continuing to use the site, you agree to this use of cookies and data.
  • en France
  • Liste des pays
  • À 7 jours
  • Température de l'eau
  • Carte satellitaire
  • Carte météo
  • Widgets météo
  • user-avatar
    Se connecter

    Météo par heure à Annaba

    Ce jour, 18 Juin, Mardi

    Heure Température Précipitation Vent Pression Humidité
    00:00 +20°C° 0 mm 1 m/s 760 mmHg 76%
    01:00 +20°C° 0 mm 1 m/s 760 mmHg 78%
    02:00 +20°C° 0 mm 1 m/s 760 mmHg 78%
    03:00 +18°C° 0 mm 0 m/s 759 mmHg 78%
    04:00 +17°C° 0 mm 0 m/s 759 mmHg 77%
    05:00 +20°C° 0 mm 1 m/s 759 mmHg 72%
    06:00 +22°C° 0 mm 1 m/s 760 mmHg 67%
    07:00 +23°C° 0 mm 1 m/s 760 mmHg 62%
    08:00 +25°C° 0 mm 1 m/s 760 mmHg 54%
    09:00 +27°C° 0 mm 1 m/s 760 mmHg 46%
    10:00 +29°C° 0 mm 1 m/s 760 mmHg 38%
    11:00 +29°C° 0 mm 2 m/s 760 mmHg 38%
    12:00 +30°C° 0 mm 3 m/s 760 mmHg 37%
    13:00 +31°C° 0 mm 3 m/s 759 mmHg 36%
    14:00 +30°C° 0 mm 4 m/s 759 mmHg 39%
    15:00 +30°C° 0 mm 4 m/s 759 mmHg 41%
    16:00 +29°C° 0 mm 4 m/s 759 mmHg 44%
    17:00 +28°C° 0 mm 4 m/s 759 mmHg 49%
    18:00 +27°C° 0 mm 3 m/s 759 mmHg 55%
    19:00 +26°C° 0 mm 3 m/s 759 mmHg 60%
    20:00 +25°C° 0 mm 2 m/s 759 mmHg 64%
    21:00 +24°C° 0 mm 2 m/s 759 mmHg 67%
    22:00 +23°C° 0 mm 2 m/s 760 mmHg 70%
    23:00 +22°C° 0 mm 1 m/s 759 mmHg 69%

    Demain, 19 Juin, Mercredi

    Heure Température Précipitation Vent Pression Humidité
    00:00 +22°C° 0 mm 1 m/s 759 mmHg 68%
    01:00 +20°C° 0 mm 0 m/s 759 mmHg 67%
    02:00 +22°C° 0 mm 1 m/s 759 mmHg 66%
    03:00 +22°C° 0 mm 1 m/s 758 mmHg 64%
    04:00 +21°C° 0 mm 2 m/s 758 mmHg 63%
    05:00 +23°C° 0 mm 2 m/s 758 mmHg 60%
    06:00 +24°C° 0 mm 1 m/s 758 mmHg 58%
    07:00 +25°C° 0 mm 1 m/s 758 mmHg 55%
    08:00 +27°C° 0 mm 2 m/s 758 mmHg 50%
    09:00 +29°C° 0 mm 2 m/s 758 mmHg 44%
    10:00 +33°C° 0 mm 3 m/s 759 mmHg 39%
    11:00 +33°C° 0 mm 3 m/s 759 mmHg 39%
    12:00 +33°C° 0 mm 3 m/s 758 mmHg 38%
    13:00 +34°C° 0 mm 3 m/s 758 mmHg 37%
    14:00 +33°C° 0 mm 3 m/s 758 mmHg 38%
    15:00 +31°C° 0 mm 3 m/s 758 mmHg 38%
    16:00 +31°C° 0 mm 3 m/s 758 mmHg 39%
    17:00 +30°C° 0 mm 3 m/s 758 mmHg 41%
    18:00 +29°C° 0 mm 2 m/s 758 mmHg 43%
    19:00 +28°C° 0 mm 1 m/s 758 mmHg 45%
    20:00 +27°C° 0 mm 1 m/s 759 mmHg 48%
    21:00 +26°C° 0 mm 1 m/s 759 mmHg 51%
    22:00 +25°C° 0 mm 1 m/s 759 mmHg 55%
    23:00 +25°C° 0 mm 1 m/s 759 mmHg 54%

    Après-demain, 20 Juin, Jeudi

    Heure Température Précipitation Vent Pression Humidité
    00:00 +25°C° 0 mm 1 m/s 759 mmHg 53%
    01:00 +25°C° 0 mm 1 m/s 758 mmHg 52%
    02:00 +26°C° 0 mm 2 m/s 758 mmHg 51%
    03:00 +26°C° 0 mm 2 m/s 758 mmHg 50%
    04:00 +27°C° 0 mm 3 m/s 757 mmHg 49%
    05:00 +27°C° 0.1 mm 3 m/s 757 mmHg 49%
    06:00 +27°C° 0.1 mm 4 m/s 757 mmHg 49%
    07:00 +28°C° 0.1 mm 4 m/s 757 mmHg 50%
    08:00 +30°C° 0.1 mm 3 m/s 758 mmHg 45%
    09:00 +32°C° 0.1 mm 2 m/s 758 mmHg 41%
    10:00 +36°C° 0.1 mm 2 m/s 758 mmHg 36%
    11:00 +36°C° 0 mm 2 m/s 758 mmHg 36%
    12:00 +36°C° 0 mm 2 m/s 758 mmHg 36%
    13:00 +36°C° 0 mm 2 m/s 757 mmHg 37%
    14:00 +35°C° 0 mm 3 m/s 757 mmHg 40%
    15:00 +34°C° 0 mm 4 m/s 757 mmHg 42%
    16:00 +33°C° 0 mm 4 m/s 757 mmHg 45%
    17:00 +31°C° 0 mm 3 m/s 757 mmHg 50%
    18:00 +30°C° 0 mm 3 m/s 758 mmHg 54%
    19:00 +28°C° 0 mm 2 m/s 758 mmHg 59%
    20:00 +27°C° 0 mm 2 m/s 758 mmHg 61%
    21:00 +27°C° 0 mm 2 m/s 758 mmHg 64%
    22:00 +26°C° 0 mm 1 m/s 758 mmHg 66%
    23:00 +25°C° 0 mm 1 m/s 758 mmHg 67%

    21 Juin, Vendredi

    Heure Température Précipitation Vent Pression Humidité
    00:00 +25°C° 0 mm 1 m/s 758 mmHg 67%
    01:00 +25°C° 0 mm 1 m/s 757 mmHg 67%
    02:00 +24°C° 0 mm 1 m/s 757 mmHg 70%
    03:00 +24°C° 0 mm 1 m/s 757 mmHg 73%
    04:00 +24°C° 0 mm 1 m/s 757 mmHg 76%
    05:00 +24°C° 0 mm 1 m/s 757 mmHg 73%
    06:00 +25°C° 0 mm 1 m/s 757 mmHg 71%
    07:00 +26°C° 0 mm 1 m/s 758 mmHg 68%
    08:00 +27°C° 0 mm 1 m/s 758 mmHg 63%
    09:00 +29°C° 0 mm 1 m/s 758 mmHg 57%
    10:00 +30°C° 0 mm 1 m/s 758 mmHg 52%
    11:00 +32°C° 0 mm 2 m/s 757 mmHg 50%
    12:00 +34°C° 0 mm 3 m/s 757 mmHg 48%
    13:00 +35°C° 0 mm 4 m/s 757 mmHg 46%
    14:00 +34°C° 0 mm 4 m/s 757 mmHg 49%
    15:00 +33°C° 0 mm 4 m/s 757 mmHg 51%
    16:00 +30°C° 0 mm 3 m/s 757 mmHg 54%
    17:00 +29°C° 0 mm 3 m/s 757 mmHg 59%
    18:00 +28°C° 0 mm 3 m/s 757 mmHg 63%
    19:00 +27°C° 0 mm 3 m/s 757 mmHg 68%
    20:00 +26°C° 0 mm 2 m/s 757 mmHg 71%
    21:00 +25°C° 0 mm 1 m/s 758 mmHg 74%
    22:00 +22°C° 0 mm 0 m/s 758 mmHg 77%
    23:00 +22°C° 0 mm 0 m/s 757 mmHg 76%

    22 Juin, Samedi

    Heure Température Précipitation Vent Pression Humidité
    00:00 +24°C° 0 mm 1 m/s 757 mmHg 76%
    01:00 +24°C° 0 mm 1 m/s 757 mmHg 75%
    02:00 +24°C° 0 mm 1 m/s 757 mmHg 80%
    03:00 +23°C° 0 mm 2 m/s 757 mmHg 84%
    04:00 +23°C° 0 mm 2 m/s 757 mmHg 88%
    05:00 +23°C° 0 mm 2 m/s 757 mmHg 85%
    06:00 +24°C° 0 mm 2 m/s 758 mmHg 82%
    07:00 +25°C° 0 mm 1 m/s 758 mmHg 78%
    08:00 +27°C° 0 mm 2 m/s 758 mmHg 71%
    09:00 +28°C° 0 mm 2 m/s 758 mmHg 65%
    10:00 +30°C° 0 mm 2 m/s 758 mmHg 58%
    11:00 +30°C° 0 mm 3 m/s 758 mmHg 58%
    12:00 +30°C° 0 mm 3 m/s 758 mmHg 58%
    13:00 +32°C° 0 mm 4 m/s 758 mmHg 58%
    14:00 +30°C° 0 mm 4 m/s 758 mmHg 58%
    15:00 +30°C° 0 mm 3 m/s 758 mmHg 59%
    16:00 +30°C° 0 mm 3 m/s 757 mmHg 59%
    17:00 +29°C° 0 mm 3 m/s 758 mmHg 62%
    18:00 +28°C° 0 mm 3 m/s 758 mmHg 64%
    19:00 +27°C° 0 mm 3 m/s 758 mmHg 67%
    20:00 +26°C° 0 mm 2 m/s 758 mmHg 70%
    21:00 +25°C° 0 mm 2 m/s 758 mmHg 74%
    22:00 +24°C° 0 mm 2 m/s 758 mmHg 78%
    23:00 +25°C° 0 mm 2 m/s 758 mmHg 73%

    23 Juin, Dimanche

    Heure Température Précipitation Vent Pression Humidité
    00:00 +25°C° 0 mm 2 m/s 758 mmHg 69%
    01:00 +26°C° 0 mm 2 m/s 758 mmHg 65%
    02:00 +27°C° 0 mm 2 m/s 757 mmHg 55%
    03:00 +28°C° 0 mm 2 m/s 757 mmHg 45%
    04:00 +30°C° 0 mm 2 m/s 757 mmHg 35%
    05:00 +31°C° 0 mm 2 m/s 758 mmHg 33%
    06:00 +32°C° 0 mm 2 m/s 758 mmHg 31%
    07:00 +34°C° 0 mm 2 m/s 758 mmHg 29%
    08:00 +37°C° 0 mm 3 m/s 758 mmHg 25%
    09:00 +41°C° 0 mm 4 m/s 759 mmHg 21%
    10:00 +44°C° 0 mm 4 m/s 759 mmHg 18%
    11:00 +45°C° 0 mm 5 m/s 759 mmHg 18%
    12:00 +45°C° 0 mm 5 m/s 759 mmHg 18%
    13:00 +45°C° 0 mm 5 m/s 759 mmHg 18%
    14:00 +43°C° 0 mm 4 m/s 759 mmHg 22%
    15:00 +41°C° 0 mm 4 m/s 759 mmHg 27%
    16:00 +40°C° 0 mm 4 m/s 759 mmHg 31%
    17:00 +37°C° 0 mm 3 m/s 759 mmHg 34%
    18:00 +35°C° 0 mm 2 m/s 759 mmHg 36%
    19:00 +34°C° 0 mm 2 m/s 759 mmHg 39%
    20:00 +32°C° 0 mm 1 m/s 759 mmHg 39%
    21:00 +31°C° 0 mm 1 m/s 760 mmHg 40%
    22:00 +30°C° 0 mm 1 m/s 760 mmHg 40%
    23:00 +30°C° 0 mm 1 m/s 760 mmHg 39%
    Voir plus